Madison, MN

12:58 PM CST on December 15, 2019 (GMT -0600)
Madison-Lac Qui Parle County

Weather History for KDXX - August, 2019

Change the Weather History Date:

Saturday, August 3, 2019

  Actual Average (KAQP) Record (KAQP)
Temperature  
Mean Temperature 75 °F -  
Max Temperature 84 °F 78 °F 91 °F (2012)
Min Temperature 66 °F 57 °F 50 °F (2013)
Cooling Degree Days 10    
Growing Degree Days 25 (Base 50)    
Moisture  
Dew Point 66 °F    
Average Humidity 76    
Maximum Humidity 100    
Minimum Humidity 48    
Precipitation  
Precipitation 0.00 in - - ()
Sea Level Pressure  
Sea Level Pressure 30.08 in    
Wind  
Wind Speed 3 mph (SE)    
Max Wind Speed 10 mph    
Max Gust Speed -    
Visibility 10 miles    
Events Rain    
Averages and records for this station are not official NWS values.
T = Trace of Precipitation, MM = Missing Value Source: NWS Daily Summary

Daily Weather History Graph

Daily Weather History Graph

Search for Another Location

Airport or City:

Astronomy

Aug. 03, 2019 Rise Set
Actual Time 6:12 AM CDT 8:48 PM CDT
Civil Twilight 5:38 AM CDT 9:22 PM CDT
Nautical Twilight 4:56 AM CDT 10:04 PM CDT
Astronomical Twilight 4:08 AM CDT 10:52 PM CDT
Moon 9:12 AM CDT (8/3) 10:47 PM CDT (8/3)
Length of Visible Light 15h 43m
Length of Day
14h 36m
Waxing Crescent, 10% of the Moon is Illuminated
Aug 3
Waxing Crescent
Aug 7
First Quarter
Aug 15
Full
Aug 23
Last Quarter
Aug 30
New

Hourly Weather History & Observations

Time (CDT) Temp. Heat Index Dew Point Humidity Pressure Visibility Wind Dir Wind Speed Gust Speed Precip Events Conditions
12:15 AM 71.6 °F - 69.8 °F 94% 30.10 in 10.0 mi Calm Calm - N/A   Clear
12:16 AM 71.6 °F - 69.8 °F 94% 30.11 in 10.0 mi Calm Calm - N/A   Clear
12:35 AM 71.6 °F - 69.8 °F 94% 30.11 in 10.0 mi Calm Calm - N/A   Clear
12:57 AM 71.6 °F - 69.8 °F 94% 30.11 in 10.0 mi Calm Calm - N/A   Clear
1:15 AM 71.6 °F - 69.8 °F 94% 30.10 in 10.0 mi Calm Calm - N/A   Clear
1:35 AM 71.6 °F - 69.8 °F 94% 30.10 in 10.0 mi Calm Calm - N/A   Clear
1:55 AM 69.8 °F - 69.8 °F 100% 30.10 in 10.0 mi Calm Calm - N/A   Clear
1:56 AM 69.8 °F - 69.8 °F 100% 30.10 in 10.0 mi Calm Calm - N/A   Clear
2:19 AM 69.8 °F - 68.0 °F 94% 30.10 in 10.0 mi Calm Calm - N/A   Clear
2:36 AM 69.8 °F - 68.0 °F 94% 30.10 in 10.0 mi East 3.5 mph - N/A   Clear
2:56 AM 69.8 °F - 68.0 °F 94% 30.10 in 10.0 mi ESE 3.5 mph - N/A   Clear
3:15 AM 69.8 °F - 68.0 °F 94% 30.10 in 10.0 mi East 4.6 mph - N/A   Clear
3:16 AM 69.8 °F - 68.0 °F 94% 30.10 in 10.0 mi East 4.6 mph - N/A   Clear
3:35 AM 69.8 °F - 68.0 °F 94% 30.10 in 10.0 mi ESE 3.5 mph - N/A   Clear
3:39 AM 69.8 °F - 68.0 °F 94% 30.10 in 10.0 mi ESE 3.5 mph - N/A   Clear
3:57 AM 68.0 °F - 66.2 °F 94% 30.10 in 10.0 mi East 4.6 mph - N/A   Clear
4:16 AM 68.0 °F - 66.2 °F 94% 30.09 in 10.0 mi ESE 3.5 mph - N/A   Clear
4:35 AM 68.0 °F - 66.2 °F 94% 30.09 in 10.0 mi Calm Calm - N/A   Clear
4:36 AM 68.0 °F - 66.2 °F 94% 30.09 in 10.0 mi Calm Calm - N/A   Clear
4:55 AM 68.0 °F - 66.2 °F 94% 30.09 in 10.0 mi Calm Calm - N/A   Clear
4:56 AM 68.0 °F - 66.2 °F 94% 30.09 in 10.0 mi Calm Calm - N/A   Clear
5:18 AM 66.2 °F - 66.2 °F 100% 30.09 in 10.0 mi Calm Calm - N/A   Clear
5:36 AM 66.2 °F - 66.2 °F 100% 30.10 in 7.0 mi Calm Calm - N/A   Clear
5:55 AM 66.2 °F - 66.2 °F 100% 30.10 in 7.0 mi Calm Calm - N/A   Clear
5:56 AM 66.2 °F - 66.2 °F 100% 30.10 in 7.0 mi Calm Calm - N/A   Clear
6:15 AM 66.2 °F - 66.2 °F 100% 30.10 in 7.0 mi Calm Calm - N/A   Clear
6:16 AM 66.2 °F - 66.2 °F 100% 30.10 in 7.0 mi Calm Calm - N/A   Clear
6:35 AM 66.2 °F - 64.4 °F 94% 30.11 in 7.0 mi Calm Calm - N/A   Clear
6:40 AM 66.2 °F - 66.2 °F 100% 30.11 in 7.0 mi ESE 3.5 mph - N/A   Clear
6:57 AM 66.2 °F - 66.2 °F 100% 30.11 in 7.0 mi ESE 3.5 mph - N/A   Clear
7:15 AM 68.0 °F - 66.2 °F 94% 30.12 in 10.0 mi Calm Calm - N/A   Clear
7:35 AM 69.8 °F - 68.0 °F 94% 30.12 in 10.0 mi Calm Calm - N/A   Clear
7:55 AM 69.8 °F - 69.8 °F 100% 30.13 in 10.0 mi Calm Calm - N/A   Clear
7:56 AM 69.8 °F - 69.8 °F 100% 30.13 in 10.0 mi Calm Calm - N/A   Clear
8:18 AM 71.6 °F - 69.8 °F 94% 30.13 in 10.0 mi SE 4.6 mph - N/A   Clear
8:37 AM 71.6 °F - 69.8 °F 94% 30.13 in 10.0 mi Calm Calm - N/A   Clear
8:55 AM 73.4 °F - 69.8 °F 88% 30.13 in 10.0 mi SE 3.5 mph - N/A   Clear
8:56 AM 73.4 °F - 69.8 °F 88% 30.13 in 10.0 mi SE 3.5 mph - N/A   Clear
9:15 AM 73.4 °F - 69.8 °F 88% 30.12 in 10.0 mi ESE 3.5 mph - N/A   Clear
9:16 AM 75.2 °F - 69.8 °F 83% 30.12 in 10.0 mi ESE 3.5 mph - N/A   Clear
9:38 AM 77.0 °F - 69.8 °F 78% 30.12 in 10.0 mi East 4.6 mph - N/A   Clear
9:56 AM 78.8 °F - 68.0 °F 69% 30.12 in 10.0 mi ESE 4.6 mph - N/A   Clear
10:15 AM 78.8 °F - 66.2 °F 65% 30.11 in 10.0 mi ESE 3.5 mph - N/A   Clear
10:35 AM 78.8 °F - 66.2 °F 65% 30.11 in 10.0 mi East 5.8 mph - N/A   Clear
10:36 AM 78.8 °F - 66.2 °F 65% 30.11 in 10.0 mi ESE 4.6 mph - N/A   Clear
10:55 AM 80.6 °F 82.3 °F 64.4 °F 58% 30.10 in 10.0 mi ENE 5.8 mph - N/A   Clear
10:59 AM 80.6 °F 82.7 °F 66.2 °F 61% 30.10 in 10.0 mi East 5.8 mph - N/A   Clear
11:16 AM 80.6 °F 82.3 °F 64.4 °F 58% 30.10 in 10.0 mi East 3.5 mph - N/A   Clear
11:36 AM 80.6 °F 81.8 °F 62.6 °F 54% 30.10 in 10.0 mi East 3.5 mph - N/A   Clear
11:55 AM 80.6 °F 82.3 °F 64.4 °F 58% 30.10 in 10.0 mi SE 5.8 mph - N/A   Clear
12:15 PM 82.4 °F 83.9 °F 64.4 °F 54% 30.10 in 10.0 mi SE 4.6 mph - N/A   Clear
12:37 PM 82.4 °F 83.9 °F 64.4 °F 54% 30.09 in 10.0 mi SE 5.8 mph - N/A   Clear
12:56 PM 82.4 °F 83.9 °F 64.4 °F 54% 30.09 in 10.0 mi SSE 4.6 mph - N/A   Clear
1:15 PM 82.4 °F 83.9 °F 64.4 °F 54% 30.09 in 10.0 mi South 8.1 mph - N/A   Clear
1:16 PM 82.4 °F 83.9 °F 64.4 °F 54% 30.09 in 10.0 mi South 6.9 mph - N/A   Clear
1:35 PM 82.4 °F 83.9 °F 64.4 °F 54% 30.09 in 10.0 mi SE 4.6 mph - N/A   Clear
1:36 PM 82.4 °F 83.9 °F 64.4 °F 54% 30.09 in 10.0 mi SE 6.9 mph - N/A   Clear
1:58 PM 82.4 °F 83.9 °F 64.4 °F 54% 30.09 in 10.0 mi SE 9.2 mph - N/A   Clear
2:16 PM 82.4 °F 83.9 °F 64.4 °F 54% 30.08 in 10.0 mi SE 5.8 mph - N/A   Clear
2:36 PM 82.4 °F 83.9 °F 64.4 °F 54% 30.08 in 10.0 mi SSE 6.9 mph - N/A   Clear
2:55 PM 84.2 °F 85.6 °F 64.4 °F 51% 30.08 in 10.0 mi SSE 5.8 mph - N/A   Clear
2:56 PM 84.2 °F 85.6 °F 64.4 °F 51% 30.08 in 10.0 mi SSE 5.8 mph - N/A   Clear
3:15 PM 84.2 °F 85.6 °F 64.4 °F 51% 30.08 in 10.0 mi SE 9.2 mph - N/A   Clear
3:19 PM 84.2 °F 85.0 °F 62.6 °F 48% 30.07 in 10.0 mi SE 8.1 mph - N/A   Clear
3:38 PM 84.2 °F 85.6 °F 64.4 °F 51% 30.06 in 10.0 mi SSE 6.9 mph - N/A   Clear
3:55 PM 84.2 °F 86.6 °F 66.2 °F 55% 30.06 in 10.0 mi SE 10.4 mph - N/A   Clear
4:15 PM 84.2 °F 85.6 °F 64.4 °F 51% 30.05 in 10.0 mi SSE 5.8 mph - N/A   Clear
4:16 PM 84.2 °F 85.6 °F 64.4 °F 51% 30.05 in 10.0 mi SSE 5.8 mph - N/A   Clear
4:35 PM 84.2 °F 86.6 °F 66.2 °F 55% 30.04 in 10.0 mi SSE 9.2 mph - N/A   Clear
4:59 PM 84.2 °F 86.6 °F 66.2 °F 55% 30.04 in 10.0 mi SE 6.9 mph - N/A   Clear
5:17 PM 84.2 °F 85.6 °F 64.4 °F 51% 30.04 in 10.0 mi SSE 4.6 mph - N/A   Clear
5:36 PM 84.2 °F 85.6 °F 64.4 °F 51% 30.04 in 10.0 mi SSE 8.1 mph - N/A   Clear
5:55 PM 84.2 °F 86.6 °F 66.2 °F 55% 30.04 in 10.0 mi SE 6.9 mph - N/A   Clear
5:56 PM 84.2 °F 86.6 °F 66.2 °F 55% 30.04 in 10.0 mi SSE 8.1 mph - N/A   Clear
6:15 PM 84.2 °F 86.6 °F 66.2 °F 55% 30.03 in 10.0 mi SE 5.8 mph - N/A   Clear
6:37 PM 82.4 °F 84.6 °F 66.2 °F 58% 30.03 in 10.0 mi SE 6.9 mph - N/A   Clear
6:55 PM 82.4 °F 83.9 °F 64.4 °F 54% 30.02 in 10.0 mi SSE 5.8 mph - N/A   Clear
7:15 PM 82.4 °F 84.6 °F 66.2 °F 58% 30.02 in 10.0 mi SSE 5.8 mph - N/A   Clear
7:35 PM 80.6 °F 82.7 °F 66.2 °F 61% 30.02 in 10.0 mi SE 4.6 mph - N/A   Clear
7:36 PM 80.6 °F 82.7 °F 66.2 °F 61% 30.02 in 10.0 mi SE 4.6 mph - N/A   Clear
7:59 PM 78.8 °F - 68.0 °F 69% 30.02 in 10.0 mi SE 5.8 mph - N/A Rain Light Rain
8:16 PM 78.8 °F - 66.2 °F 65% 30.02 in 10.0 mi SSE 4.6 mph - N/A   Clear
8:36 PM 75.2 °F - 66.2 °F 73% 30.03 in 10.0 mi SE 4.6 mph - N/A   Clear
8:55 PM 75.2 °F - 66.2 °F 73% 30.04 in 10.0 mi SSE 5.8 mph - N/A   Clear
8:56 PM 75.2 °F - 66.2 °F 73% 30.04 in 10.0 mi SSE 4.6 mph - N/A   Clear
9:15 PM 73.4 °F - 66.2 °F 78% 30.04 in 10.0 mi SE 4.6 mph - N/A   Clear
9:19 PM 73.4 °F - 66.2 °F 78% 30.04 in 10.0 mi SE 4.6 mph - N/A   Clear
9:37 PM 73.4 °F - 66.2 °F 78% 30.05 in 10.0 mi SSE 3.5 mph - N/A   Clear
9:56 PM 71.6 °F - 66.2 °F 83% 30.06 in 10.0 mi SE 3.5 mph - N/A   Clear
10:15 PM 71.6 °F - 64.4 °F 78% 30.06 in 10.0 mi SE 3.5 mph - N/A   Clear
10:16 PM 71.6 °F - 64.4 °F 78% 30.06 in 10.0 mi SE 3.5 mph - N/A   Clear
10:35 PM 71.6 °F - 64.4 °F 78% 30.06 in 10.0 mi SE 3.5 mph - N/A   Clear
10:36 PM 71.6 °F - 64.4 °F 78% 30.06 in 10.0 mi SE 3.5 mph - N/A   Clear
10:58 PM 71.6 °F - 64.4 °F 78% 30.06 in 10.0 mi SSE 3.5 mph - N/A   Clear
11:16 PM 69.8 °F - 64.4 °F 83% 30.06 in 10.0 mi Calm Calm - N/A   Clear
11:35 PM 69.8 °F - 66.2 °F 88% 30.06 in 10.0 mi South 3.5 mph - N/A   Clear
11:36 PM 69.8 °F - 66.2 °F 88% 30.06 in 10.0 mi Calm Calm - N/A   Clear
11:55 PM 69.8 °F - 66.2 °F 88% 30.06 in 10.0 mi South 3.5 mph - N/A   Clear
11:56 PM 69.8 °F - 66.2 °F 88% 30.06 in 10.0 mi South 3.5 mph - N/A   Clear